SCP
1 1 1 1 1 1 2 2 2 1 1 1 1 1 1 1 1 1 1 1 1 1 1 1 1 1 1 1 1 1 1 1 0 0 0 0 0 0 0 0 0 0 0
1 1 1 1 1 1 1 1 1 1 1 1 1 1 1 1 1 1 1 1 1 1 1 1 1 1 1 1 1 1 1 1 0 0 0 0 0 0 0 0 0 0 0
1 1 1 1 1 1 1 1 1 1 1 1 1 1 1 1 1 1 1 1 1 1 1 1 1 1 1 1 1 1 1 1 1 0 0 0 0 0 0 0 0 0 0
0 0 0 0 0 0 0 0 0 0 0 0 0 0 0 0 0 0 0 0 0 0 1 1 1 1 1 1 1 1 1 1 1 1 0 0 0 0 0 0 0 0 0
0 0 0 0 0 0 0 0 0 0 0 0 0 0 0 0 0 0 0 0 0 0 0 0 0 1 1 1 1 1 1 1 1 1 1 0 0 0 0 0 0 0 0
0 0 0 0 0 0 0 0 0 0 0 0 0 0 0 0 0 0 0 0 0 0 0 0 0 0 0 1 1 1 1 1 1 1 1 1 0 0 0 0 0 0 0
0 0 0 0 0 0 0 0 0 0 0 0 0 0 0 0 0 0 0 0 0 0 0 0 0 0 0 0 0 1 1 1 1 1 1 1 1 0 0 0 0 0 0
0 0 0 0 0 0 0 0 0 0 0 0 0 0 0 0 0 0 0 0 0 0 0 0 0 0 0 0 0 0 0 0 1 1 1 1 1 1 0 0 0 0 0
0 0 0 0 0 0 0 0 0 0 0 0 0 0 0 0 0 0 0 0 0 0 0 0 0 0 0 0 0 0 0 0 0 0 1 1 1 1 1 1 0 0 0
0 0 0 0 0 0 0 0 0 0 0 0 0 0 0 0 0 0 0 0 0 0 0 0 0 0 0 0 0 0 0 0 0 0 0 1 1 1 1 1 1 1 0
0 0 0 0 0 0 0 0 0 0 0 0 0 0 0 0 0 0 0 0 0 0 0 0 0 0 0 0 0 0 0 0 0 0 0 0 0 1 1 1 1 1 1
0 0 0 0 0 0 0 0 0 0 0 0 0 0 0 0 0 0 0 0 0 0 0 0 0 0 0 0 0 0 0 0 0 0 0 0 0 0 0 0 0 1 1
0 0 0 0 0 0 0 0 0 0 0 0 0 0 0 0 0 0 0 0 0 0 0 0 0 0 0 0 0 0 0 0 0 0 0 0 0 0 0 0 0 0 0
0 0 0 0 0 0 0 0 0 0 0 0 0 0 0 0 0 0 0 0 0 0 0 0 0 0 0 0 0 0 0 0 0 0 0 0 0 0 0 0 0 0 0
0 0 0 0 0 0 0 0 0 0 0 0 0 0 0 0 0 0 0 0 0 0 0 0 0 0 0 0 0 0 0 0 0 0 0 0 0 0 0 0 0 0 0
0 0 0 0 0 0 0 0 0 0 0 0 0 0 0 0 0 0 0 0 0 0 0 0 0 0 0 0 0 0 0 0 0 0 0 0 0 0 0 0 0 0 0
0 0 0 0 0 0 0 0 0 0 0 0 0 0 0 0 0 0 0 0 0 0 0 0 0 0 0 0 0 0 0 0 0 0 0 0 0 0 0 0 0 0 0
0 0 0 0 0 0 0 0 0 0 0 0 0 0 0 0 0 0 0 0 0 0 0 0 0 0 0 0 0 0 0 0 0 0 0 0 0 0 0 0 0 0 0
0 0 0 0 0 0 0 0 0 0 0 0 0 0 0 0 0 0 0 0 0 0 0 0 0 0 0 0 0 0 0 0 0 0 0 0 0 0 0 0 0 0 0
0 0 0 0 0 0 0 0 0 0 0 0 0 0 0 0 0 0 0 0 0 0 0 0 0 0 0 0 0 0 0 0 0 0 0 0 0 0 0 0 0 0 0
0 0 0 0 0 0 0 0 0 0 0 0 0 0 0 0 0 0 0 0 0 0 0 0 0 0 0 0 0 0 0 0 0 0 0 0 0 0 0 0 0 0 0
0 0 0 0 0 0 0 0 0 0 0 0 0 0 0 0 0 0 0 0 0 0 0 0 0 0 0 0 0 0 0 0 0 0 0 0 0 0 0 0 0 0 0
0 0 0 0 0 0 0 0 0 0 0 0 0 0 0 0 0 0 0 0 0 0 0 0 0 0 0 0 0 0 0 0 0 0 0 0 0 0 0 0 0 0 0
0 0 0 0 0 0 0 0 0 0 0 0 0 0 0 0 0 0 0 0 0 0 0 0 0 0 0 0 0 0 0 0 0 0 0 0 0 0 0 0 0 0 0
0 0 0 0 0 0 0 0 0 0 0 0 0 0 0 0 0 0 0 0 0 0 0 0 0 0 0 0 0 0 0 0 0 0 0 0 0 0 0 0 0 0 0
0 0 0 0 0 0 0 0 0 0 0 0 0 0 0 0 0 0 0 0 0 0 0 0 0 0 0 0 0 0 0 0 0 0 0 0 0 0 0 0 0 0 0
Wind_Speed
9 9 9 7 6 5 5 4 3 2 1 1 2 3 4 4 4 4 5 7 7 6 6 6 6 7 6 7 7 7 8 7 5 6 6 6 8 7 6 6 7 8 8
8 8 7 6 6 5 4 5 4 3 2 1 2 2 2 3 3 3 4 5 6 6 6 6 6 7 6 8 8 7 7 6 6 5 5 5 6 6 6 5 6 6 6
6 6 6 5 5 5 4 3 3 2 2 2 1 1 2 2 1 2 2 3 4 5 5 5 6 6 7 7 8 8 10 7 7 6 5 5 5 3 5 5 5 4 4
5 5 4 4 3 3 2 2 2 2 1 1 1 2 2 2 2 2 2 2 3 2 2 4 6 6 6 6 8 8 7 8 7 6 6 6 5 5 3 6 6 6 6
4 3 3 2 2 1 1 1 1 2 2 2 2 3 3 3 2 2 1 2 1 1 1 3 4 5 6 6 6 6 8 7 7 6 6 7 6 7 6 5 5 6 6
2 2 2 2 2 3 3 2 3 4 3 4 4 5 5 4 4 4 3 3 2 2 3 3 3 3 4 5 5 6 8 7 7 7 6 6 7 7 7 7 7 6 5
3 3 3 4 4 5 5 5 5 6 6 6 6 6 7 7 7 6 5 5 4 4 4 4 4 3 3 4 4 5 7 8 9 9 7 7 7 6 6 7 7 6 5
4 5 6 6 6 7 6 6 7 7 7 7 8 8 8 8 7 7 7 6 6 5 4 5 5 5 5 5 4 5 6 7 8 9 9 7 7 7 7 7 7 7 7
6 7 7 8 8 8 8 8 9 9 10 10 9 9 9 9 9 8 9 8 7 7 6 7 7 7 7 7 6 6 7 6 7 8 9 8 7 7 7 7 8 8 8
9 9 9 10 9 9 10 10 10 11 11 11 10 9 10 10 10 10 10 10 9 9 8 8 9 8 8 8 8 8 8 8 8 6 8 8 7 7 7 7 8 8 9
12 12 12 12 12 12 12 12 12 12 12 12 12 12 12 11 11 11 11 11 11 10 11 11 11 11 10 10 9 10 9 9 9 9 9 9 9 7 7 7 8 8 8
13 13 14 14 14 14 14 14 13 13 13 13 13 13 13 12 12 12 12 12 12 12 13 12 12 13 12 11 11 11 11 11 11 10 10 10 8 9 9 8 9 8 8
14 14 14 14 14 15 15 15 15 15 15 15 15 14 14 14 14 14 13 13 14 14 14 14 14 14 13 12 12 12 12 12 12 11 11 11 10 10 9 9 9 8 9
14 15 15 15 15 15 15 16 16 16 16 16 16 16 15 15 15 14 14 14 14 14 15 15 14 14 14 14 13 13 13 12 12 12 12 12 12 12 11 10 10 9 9
16 16 16 16 16 16 16 16 16 16 16 17 17 16 16 15 15 14 14 14 14 15 15 15 15 15 14 14 14 13 13 13 13 12 12 13 12 11 9 9 9 10 9
18 18 18 18 17 16 16 16 16 16 16 17 17 17 16 16 15 15 15 14 14 14 14 15 14 15 13 11 10 12 14 13 13 13 12 12 13 13 13 12 12 11 11
18 18 18 17 16 16 16 17 17 17 16 16 16 16 16 16 15 15 15 15 14 14 13 14 14 15 14 10 10 12 13 14 13 13 12 12 12 13 14 15 17 16 16
18 17 17 17 16 16 16 16 17 17 16 16 16 16 16 16 15 15 15 14 13 12 12 13 13 14 13 12 13 13 14 14 14 14 14 13 13 12 12 13 14 14 15
16 16 16 17 16 16 16 17 17 16 16 16 16 15 15 15 15 15 15 13 12 12 12 11 12 13 12 11 13 13 12 12 15 14 14 14 14 11 10 12 13 13 12
15 16 16 16 15 15 16 16 17 16 16 16 16 15 15 14 15 14 14 12 11 11 11 11 10 12 12 10 12 14 11 11 12 12 13 13 14 10 12 13 13 14 12
16 16 16 15 15 15 15 16 16 16 16 16 16 15 14 14 13 12 11 11 10 10 10 10 10 10 11 10 12 14 10 10 11 10 10 10 15 13 12 12 12 11 9
16 16 15 15 15 15 15 16 16 16 16 16 16 15 13 12 11 11 11 10 9 9 8 8 9 8 9 9 10 13 14 11 11 10 9 6 11 13 13 12 11 9 8
15 15 15 15 15 14 14 15 16 15 15 15 15 14 14 11 10 10 10 8 6 5 5 6 6 6 6 6 9 11 13 13 11 8 5 2 7 10 11 13 11 10 10
14 14 15 15 15 15 14 14 14 14 15 15 14 12 12 11 10 8 6 5 5 5 5 5 5 5 5 5 6 8 9 11 12 10 8 8 8 9 8 8 11 11 10
13 13 13 14 15 15 15 14 14 14 14 14 13 12 10 9 8 7 5 5 4 3 5 5 4 4 4 1 2 3 5 6 6 7 7 8 8 9 9 9 9 9 10
13 13 14 14 15 15 15 14 14 14 13 12 11 9 8 7 7 6 4 2 4 3 4 5 5 4 2 1 2 3 3 2 3 5 8 8 8 8 9 9 9 9 10
Wind_Direction
71 72 71 72 75 72 72 71 52 32 288 263 253 251 255 249 243 240 242 241 239 230 226 230 225 230 229 234 232 233 231 236 237 249 251 241 237 240 238 236 241 227 224
77 72 72 74 77 73 64 68 56 36 357 345 290 277 281 273 267 268 257 245 235 230 224 231 227 229 231 229 227 226 243 239 224 240 254 246 220 210 221 222 222 232 220
74 77 73 71 71 65 54 48 42 34 18 350 307 279 248 256 266 281 269 258 248 239 238 239 240 232 233 229 224 221 228 236 226 229 248 257 251 208 186 210 215 216 225
70 75 78 72 65 63 59 48 26 20 8 314 315 300 306 307 310 296 281 258 242 246 252 253 246 237 234 231 229 222 230 234 234 219 233 261 299 269 214 196 192 199 219
60 60 55 39 26 4 356 355 338 308 302 299 277 276 284 287 286 280 268 271 255 259 268 261 253 243 236 233 237 231 234 234 238 235 224 224 229 244 258 236 205 204 209
36 23 5 328 309 299 300 298 292 288 287 281 278 276 280 279 278 267 265 251 238 233 237 245 241 238 240 232 234 233 229 238 243 245 238 229 227 226 237 240 233 230 218
346 341 331 319 307 301 299 293 290 288 284 278 276 275 276 273 264 265 259 260 255 237 224 236 231 236 237 238 242 238 241 235 234 235 237 239 243 240 241 248 245 244 234
332 326 323 317 312 308 302 298 296 292 288 282 279 276 273 271 271 266 273 267 267 262 240 235 236 237 236 238 234 250 246 241 238 239 240 243 242 239 238 243 248 245 238
330 327 323 318 312 308 304 300 297 293 289 285 280 272 270 273 279 275 264 264 260 259 246 238 237 236 236 236 231 238 239 244 244 245 238 239 242 237 237 238 241 246 247
330 329 327 324 319 313 309 306 300 297 294 290 286 282 278 273 270 271 273 271 267 262 259 251 243 236 234 233 234 238 231 232 237 243 250 248 248 244 240 238 238 240 250
331 331 328 327 323 319 318 314 310 305 301 296 292 288 283 279 274 268 267 266 265 262 255 251 249 245 238 234 232 239 240 237 237 237 237 240 247 250 247 239 237 237 239
329 329 329 327 323 322 321 318 315 309 305 302 296 291 288 283 278 273 269 268 265 261 256 254 252 249 245 239 236 239 240 238 239 237 236 238 239 238 245 245 240 239 239
328 327 327 325 323 323 320 317 314 311 309 306 301 295 291 287 282 279 276 272 267 262 259 254 251 249 248 244 241 241 242 243 243 241 239 237 237 239 240 241 243 240 234
327 327 327 324 323 321 320 318 316 315 311 308 303 299 295 291 286 282 278 274 268 263 258 254 251 249 247 244 242 242 242 243 244 245 245 243 240 238 237 238 239 243 242
329 328 326 324 322 321 320 317 315 314 311 306 302 298 296 292 287 283 280 276 271 265 260 257 252 247 244 242 240 240 242 241 242 242 242 243 242 245 243 245 239 235 236
328 327 326 324 322 322 319 318 316 315 312 307 303 301 299 294 290 286 281 276 271 266 263 259 254 249 246 237 226 236 246 244 241 241 242 244 234 229 224 237 249 252 246
327 326 325 323 322 319 319 317 315 312 308 306 303 301 298 295 293 290 285 281 277 271 264 259 254 251 250 237 217 219 241 247 244 242 243 244 240 226 229 221 222 233 240
326 326 324 322 320 320 319 317 314 310 309 307 305 304 301 297 295 292 287 284 280 276 269 261 256 252 246 222 212 211 231 243 244 243 241 242 247 241 234 235 231 230 226
326 324 323 322 321 320 321 317 313 312 311 309 309 308 305 299 295 289 286 285 282 277 269 263 256 252 246 218 205 207 231 235 239 240 238 238 240 232 219 235 240 241 239
326 325 324 321 321 323 322 317 315 316 316 315 312 308 302 298 294 291 289 285 278 274 270 264 257 252 246 220 200 203 233 237 238 236 236 230 235 226 200 227 235 236 236
326 326 324 322 324 325 322 317 316 317 319 316 310 307 304 300 294 291 287 283 278 273 265 263 257 250 245 226 201 201 232 240 239 239 234 226 196 208 207 224 238 240 244
329 329 325 324 325 326 323 319 319 320 319 315 311 309 309 304 301 299 293 287 282 276 268 261 259 249 237 232 208 200 220 245 245 243 243 229 177 193 203 215 233 236 235
330 328 327 326 327 327 326 322 323 323 319 316 315 313 312 309 305 302 299 295 285 274 271 259 256 255 242 218 204 206 214 224 239 248 256 234 171 190 206 217 217 216 223
331 330 328 328 327 329 328 325 326 325 320 318 317 315 313 313 311 303 299 295 290 280 270 264 259 257 246 233 213 208 205 208 222 234 219 204 206 225 243 209 202 214 221
330 329 328 327 327 329 328 329 331 329 324 321 320 319 319 316 313 311 312 308 303 301 289 288 283 270 259 285 332 260 236 230 224 224 224 221 213 212 215 214 208 206 208
329 328 330 329 328 328 329 333 334 330 327 325 325 324 323 321 321 325 330 314 292 290 272 276 287 285 284 305 277 252 251 253 226 229 229 226 221 218 212 206 203 205 206